ROMMA est une association bénévole à but non lucratif. Votre soutien est indispensable : ADHERER à ROMMA ou FAIRE un DON

Crêts du Salève - (74, Haute-Savoie)

Salève (1270 m)   Longitude: 6° 10' 28'' E   Latitude: 46° 7' 42'' N Station romma n°73
 

Détail journalier du     <<     >>

Température Precipitation Humidité Vent Dir Rafale Dir. rafale Ensol.
Heure (°C) (mm) (%) (km/h) (km/h) (min)
01:00 8.0010017NNO26NNO0
02:00 7.8010015NE29NNO0
03:00 8.00.21009N23NO0
04:00 11.601008N16NNE0
05:00 12.607212NE19NE0
06:00 12.307019ENE26ENE0
07:00 13.206217NE29ENE0
08:00 15.304717ENE27ENE0
09:00 15.304820NE27ENE40
10:00 15.804722NE31NE60
11:00 15.404920NE35NE40
12:00 16.004415NE23NE0
13:00 16.304420ENE29ENE0
14:00 16.004823ENE35ENE0
15:00 16.204925ENE34ENE0
16:00 17.204326ENE40E0
17:00 16.404720E37SE0
18:00 18.104322SSE48ESE0
19:00 16.205116SSE39SE10
20:00 11.30748S21SO0
21:00 8.909527SO60SO0
22:00 10.508512SSO35SO0
23:00 10.70837SO15SO0
minuit 9.109430SO58SO0

Graphique du 23-10-2019

 

Serveur OMMA